Location: Chuathbaluk
(61.5726°N, 159.2454°W)
Time: 04:54:54
(UTC+00:00)

Transit 2A - Pass Details

Date: 03 December 2020
Orbit: 599 x 960 km, 66.7° (Epoch: 26 January)

Event Time Altitude Azimuth Distance (km) Brightness Sun altitude
Rises 08:22:08 0° 291° (WNW) 3,495 10.0 -45.2°
Reaches altitude 10° 08:24:48 10° 295° (WNW) 2,503 9.2 -45.4°
Enters shadow 08:25:14 12° 296° (WNW) 2,345 9.0 -45.4°
Maximum altitude 08:30:29 55° 14° (NNE) 957 - -45.8°
Drops below altitude 10° 08:35:34 10° 92° (E) 2,256 - -46.2°
Sets 08:37:52 0° 97° (E) 3,122 - -46.4°
